SCP
0 0 0 0 0 0 0 0 0 0 0 0 0 0 0 0 0 0 0 0 0 0 0 0 0 0 0 0 0 0 0 0 0 0 0 0 0 0
0 0 0 0 0 0 0 0 0 0 0 0 0 0 0 0 0 0 0 0 0 0 0 0 0 0 0 0 0 0 0 0 0 0 0 0 0 0
0 0 0 0 0 0 0 0 0 0 0 0 0 0 0 0 0 0 0 0 0 0 0 0 0 0 0 0 0 0 0 0 0 0 0 0 0 0
0 0 0 0 0 0 0 0 0 0 0 0 0 0 0 0 0 0 0 0 0 0 0 0 0 0 0 0 0 0 0 0 0 0 0 0 0 0
0 0 0 0 0 0 0 0 0 0 0 0 0 0 0 0 0 0 0 0 0 0 0 0 0 0 0 0 0 0 0 0 0 0 0 0 0 0
0 0 0 0 0 0 0 0 0 0 0 0 0 0 0 0 0 0 0 0 0 0 0 0 0 0 0 0 0 0 0 0 0 0 0 0 0 0
0 0 0 0 0 0 0 0 0 0 0 0 0 0 0 0 0 0 0 0 0 0 0 0 0 0 0 0 0 0 0 0 0 0 0 0 0 0
0 0 0 0 0 0 0 0 0 0 0 0 0 0 0 0 0 0 0 0 0 0 0 0 0 0 0 0 0 0 0 0 0 0 0 0 0 0
0 0 0 0 0 0 0 0 0 0 0 0 0 0 0 0 0 0 0 0 0 0 0 0 0 0 0 0 0 0 0 0 0 0 0 0 0 0
0 0 0 0 0 0 0 0 0 0 0 0 0 0 0 0 0 0 0 0 0 0 0 0 0 0 0 0 0 0 0 0 0 0 0 0 0 0
0 0 0 0 0 0 0 0 0 0 0 0 0 0 0 0 0 0 0 0 0 0 0 0 0 0 0 0 0 0 0 0 0 0 0 0 0 0
0 0 0 0 0 0 0 0 0 0 0 0 0 0 0 0 0 0 0 0 0 0 0 0 0 0 0 0 0 0 0 0 0 0 0 0 0 0
0 0 0 0 0 0 0 0 0 0 0 0 0 0 0 0 0 0 0 0 0 0 0 0 0 0 0 0 0 0 0 0 0 0 0 0 0 0
0 0 0 0 0 0 0 0 0 0 0 0 0 0 0 0 0 0 0 0 0 0 0 0 0 0 0 0 0 0 0 0 0 0 0 0 0 0
0 0 0 0 0 0 0 0 0 0 0 0 0 0 0 0 0 0 0 0 0 0 0 0 0 0 0 0 0 0 0 0 0 0 0 0 0 0
0 0 0 0 0 0 0 0 0 0 0 0 0 0 0 0 0 0 0 0 0 0 0 0 0 0 0 0 0 0 0 0 0 0 0 0 0 0
0 0 0 0 0 0 0 0 0 0 0 0 0 0 0 0 0 0 0 0 0 0 0 0 0 0 0 0 0 0 0 0 0 0 0 0 0 0
0 0 0 0 0 0 0 0 0 0 0 0 0 0 0 0 0 0 0 0 0 0 0 0 0 0 0 0 0 0 0 0 0 0 0 0 0 0
0 0 0 0 0 0 0 0 -0 0 0 0 0 0 0 0 0 0 0 0 0 0 0 0 0 0 0 0 0 0 0 0 0 0 0 0 0 0
0 0 0 0 0 0 0 0 0 0 0 0 0 0 0 0 0 0 0 0 0 0 0 0 0 0 0 0 0 0 0 0 0 0 0 0 0 0
0 0 0 0 0 0 0 0 0 0 0 0 0 0 0 0 0 0 0 0 0 0 0 0 0 0 0 0 0 0 0 0 0 0 0 0 0 0
0 0 0 0 0 0 0 0 0 0 0 0 0 0 0 0 0 0 0 0 0 0 0 0 0 0 0 0 0 0 0 0 0 0 0 0 0 0
0 0 0 0 0 0 0 0 0 0 0 0 0 0 0 0 0 0 0 0 0 0 0 0 0 0 0 0 0 0 0 0 0 0 0 0 0 0
Wind_Speed
6 7 6 5 5 4 4 4 5 4 4 4 3 3 3 3 6 6 5 9 10 9 8 7 7 7 6 6 6 5 5 4 4 4 2 2 1 1
4 6 6 5 5 5 5 4 4 4 3 3 3 2 3 4 6 5 5 9 9 9 8 8 8 8 7 7 6 6 6 5 5 4 3 3 3 3
4 6 6 6 5 5 5 5 5 4 4 2 1 2 3 4 4 4 4 5 5 9 9 9 9 9 8 8 8 7 6 5 5 5 5 5 4 4
4 5 6 5 6 5 5 6 6 5 4 4 3 2 3 5 5 5 5 5 5 9 10 10 9 10 10 9 9 8 7 7 6 6 6 5 5 6
3 5 6 7 7 5 6 6 5 5 4 5 4 3 3 4 6 6 6 5 5 7 9 10 10 11 11 10 9 9 8 8 7 7 7 7 7 7
3 4 5 6 7 7 6 6 6 6 6 6 6 4 4 5 6 6 5 4 5 5 6 8 10 11 11 11 10 9 8 8 8 8 7 7 8 8
2 2 4 6 8 8 6 6 7 6 6 6 6 5 5 7 6 5 7 6 4 4 5 4 5 5 5 8 9 10 9 9 8 8 7 7 7 8
2 2 2 4 8 9 10 11 10 8 7 6 5 7 7 7 6 8 8 7 4 3 4 4 3 4 4 4 7 9 9 9 8 8 8 7 7 8
2 1 1 2 4 4 7 10 10 10 10 7 8 8 8 8 9 9 8 5 5 6 5 4 3 4 3 4 8 9 9 9 9 9 8 8 8 8
2 1 0 1 2 4 5 6 5 5 7 6 6 7 7 8 9 8 9 8 7 4 3 4 3 3 3 3 6 8 8 8 8 8 8 8 7 7
3 2 1 1 3 7 6 6 5 4 5 7 7 8 12 13 12 10 9 9 6 3 2 4 4 3 2 2 3 7 7 7 6 7 7 7 8 7
2 2 3 3 4 6 5 6 6 5 5 7 8 9 10 13 14 10 10 9 6 4 3 4 4 4 3 1 1 2 3 5 6 6 6 7 7 4
2 2 2 4 5 6 5 4 6 6 6 7 7 7 7 6 6 5 5 7 6 4 6 5 4 3 4 3 1 1 1 1 2 2 4 4 6 5
2 2 2 5 7 7 5 8 10 8 5 6 6 6 6 6 5 6 7 6 4 5 8 6 5 5 5 4 3 2 1 1 1 1 1 2 3 3
3 5 6 8 7 6 8 10 7 5 5 6 6 4 4 5 7 7 8 8 9 7 5 3 5 5 4 4 4 4 3 2 2 2 2 2 1 1
4 6 8 9 7 7 7 5 4 4 5 5 5 4 4 5 5 5 5 5 5 4 6 6 4 6 4 3 4 4 4 4 3 3 2 1 1 2
2 3 3 3 4 4 4 4 4 4 5 4 5 5 5 5 4 4 4 3 4 4 3 3 5 5 5 4 4 3 4 2 2 3 3 2 3 4
3 2 2 2 3 3 3 3 3 3 4 4 5 5 5 6 5 3 3 4 4 4 3 3 3 3 3 3 2 4 3 3 2 3 2 2 3 3
2 2 2 2 2 2 2 2 2 2 3 4 5 5 5 5 5 4 4 4 4 4 3 2 2 3 3 2 1 1 4 3 3 3 3 3 4 3
1 1 1 1 1 2 2 2 3 3 3 4 4 4 4 4 4 4 4 4 4 4 3 2 2 3 4 4 3 2 3 4 4 4 3 2 3 4
1 2 2 2 2 2 2 2 3 3 3 4 4 4 4 4 4 4 4 6 4 4 4 3 2 4 3 3 2 1 2 3 5 4 4 2 1 1
3 3 3 3 3 3 3 3 3 3 4 3 3 4 4 4 5 6 6 5 4 4 4 3 3 3 2 3 3 2 1 1 2 5 7 6 4 4
5 4 4 4 4 3 3 4 4 4 4 4 4 4 4 4 4 4 5 5 4 4 4 4 3 2 2 2 3 2 2 2 1 1 4 9 13 12
Wind_Direction
206 200 196 191 189 187 176 169 163 177 208 206 198 190 182 176 179 181 178 182 182 183 180 175 173 167 160 153 147 139 131 124 123 127 130 124 111 50
203 199 199 190 189 192 190 185 176 171 184 188 189 165 169 165 167 167 171 169 173 168 165 160 157 150 145 141 134 125 119 118 118 119 113 101 87 78
210 202 202 189 186 192 189 185 182 167 170 159 151 133 139 141 134 137 135 140 148 154 150 148 147 142 137 132 128 124 121 119 117 115 109 103 91 79
214 205 201 191 189 189 189 190 185 176 163 161 157 149 142 139 133 132 128 128 124 134 137 137 137 134 130 128 126 122 116 110 104 101 100 97 93 87
224 214 205 190 191 189 186 186 184 179 162 157 158 148 137 133 125 117 114 110 113 119 123 123 125 124 124 122 119 117 113 108 104 102 97 93 89 86
242 224 208 194 190 185 185 183 179 173 164 159 155 149 144 138 135 133 126 111 111 108 105 108 112 113 117 119 120 118 114 113 111 107 101 97 93 87
286 245 218 199 195 189 184 180 175 171 165 163 159 155 157 157 153 143 136 123 98 106 107 100 104 101 104 113 117 119 118 118 115 113 107 101 97 94
301 279 233 206 201 198 191 184 178 174 170 167 167 170 167 158 145 146 143 142 134 131 113 99 97 100 95 100 113 119 121 120 120 118 113 108 105 102
306 303 267 203 183 177 182 179 182 181 175 166 168 173 168 164 155 154 154 142 127 141 121 104 93 93 80 100 116 119 122 123 123 119 116 111 108 104
341 309 274 228 183 157 152 152 155 164 170 170 173 174 165 159 157 150 138 115 101 105 106 115 117 98 82 72 103 112 114 119 122 121 119 113 106 103
0 4 49 132 160 139 136 133 129 129 135 145 152 155 153 150 144 136 137 137 132 132 110 117 128 111 88 62 71 92 101 104 112 120 120 115 107 99
3 19 43 66 100 119 131 134 133 127 125 124 125 132 141 147 149 152 152 148 136 141 151 126 136 134 124 98 71 72 83 87 94 99 113 118 118 109
15 22 39 75 90 97 108 122 129 125 119 120 121 122 125 130 131 129 137 148 144 144 157 138 136 138 133 141 150 135 115 110 96 83 91 119 139 138
23 19 47 77 88 93 98 117 119 114 113 113 116 121 125 125 118 109 101 87 81 129 148 140 136 151 141 142 160 155 135 136 137 132 119 100 117 141
41 55 65 74 80 88 100 108 109 108 110 110 112 105 99 112 111 100 89 86 76 75 88 110 133 139 137 145 150 153 165 188 181 170 168 175 176 162
44 61 68 69 71 78 82 79 78 96 108 110 107 99 96 106 112 112 115 112 95 68 45 53 112 133 129 130 144 159 168 172 175 185 178 198 210 210
53 56 58 67 70 68 69 70 76 87 95 104 114 113 112 109 103 100 108 103 109 121 94 55 60 72 86 129 139 157 159 165 171 163 166 212 239 227
73 75 71 77 91 94 98 86 79 95 103 114 118 121 125 124 116 101 97 112 120 123 124 128 122 94 77 46 93 157 160 166 163 165 168 195 251 244
79 90 98 103 109 113 114 113 115 118 117 121 123 125 125 124 123 121 115 112 114 121 128 136 133 126 135 184 287 161 166 163 155 169 193 202 231 252
108 147 153 151 148 144 139 129 125 126 123 126 129 133 135 133 133 138 139 138 136 135 141 153 165 161 167 180 189 189 179 167 170 183 191 207 256 277
197 193 191 179 170 162 157 151 147 146 146 144 146 149 149 143 147 151 150 150 143 151 170 190 192 148 118 107 112 235 235 210 192 182 173 178 235 277
203 200 197 192 183 174 168 159 154 156 158 158 161 162 162 161 161 162 164 165 171 170 169 146 130 129 138 161 185 206 231 236 233 225 211 194 184 206
202 198 196 192 189 179 173 174 174 176 175 172 169 169 167 167 167 166 170 170 160 155 148 149 152 154 163 172 181 193 209 211 209 232 247 234 233 243